Index of /20260508/WXO-DD/model_rdps/10km/12/012
Name Last modified Size Description
Parent Directory -
20260508T12Z_MSC_RDPS_AbsoluteVorticity_IsbL-0250_RLatLon0.09_PT012H.grib2 2026-05-08 14:43 598K
20260508T12Z_MSC_RDPS_AbsoluteVorticity_IsbL-0500_RLatLon0.09_PT012H.grib2 2026-05-08 14:43 563K
20260508T12Z_MSC_RDPS_AbsoluteVorticity_IsbL-0700_RLatLon0.09_PT012H.grib2 2026-05-08 14:43 632K
20260508T12Z_MSC_RDPS_AbsoluteVorticity_IsbL-0850_RLatLon0.09_PT012H.grib2 2026-05-08 14:43 789K
20260508T12Z_MSC_RDPS_AirTemp_AGL-120m_RLatLon0.09_PT012H.grib2 2026-05-08 14:43 373K
20260508T12Z_MSC_RDPS_AirTemp_AGL-2m_RLatLon0.09_PT012H.grib2 2026-05-08 14:43 627K
20260508T12Z_MSC_RDPS_AirTemp_AGL-40m_RLatLon0.09_PT012H.grib2 2026-05-08 14:43 384K
20260508T12Z_MSC_RDPS_AirTemp_AGL-80m_RLatLon0.09_PT012H.grib2 2026-05-08 14:43 378K
20260508T12Z_MSC_RDPS_AirTemp_IsbL-0001_RLatLon0.09_PT012H.grib2 2026-05-08 14:43 301K
20260508T12Z_MSC_RDPS_AirTemp_IsbL-0005_RLatLon0.09_PT012H.grib2 2026-05-08 14:43 368K
20260508T12Z_MSC_RDPS_AirTemp_IsbL-0010_RLatLon0.09_PT012H.grib2 2026-05-08 14:43 381K
20260508T12Z_MSC_RDPS_AirTemp_IsbL-0020_RLatLon0.09_PT012H.grib2 2026-05-08 14:43 308K
20260508T12Z_MSC_RDPS_AirTemp_IsbL-0030_RLatLon0.09_PT012H.grib2 2026-05-08 14:43 331K
20260508T12Z_MSC_RDPS_AirTemp_IsbL-0050_RLatLon0.09_PT012H.grib2 2026-05-08 14:43 307K
20260508T12Z_MSC_RDPS_AirTemp_IsbL-0100_RLatLon0.09_PT012H.grib2 2026-05-08 14:43 384K
20260508T12Z_MSC_RDPS_AirTemp_IsbL-0150_RLatLon0.09_PT012H.grib2 2026-05-08 14:43 412K
20260508T12Z_MSC_RDPS_AirTemp_IsbL-0175_RLatLon0.09_PT012H.grib2 2026-05-08 14:43 405K
20260508T12Z_MSC_RDPS_AirTemp_IsbL-0200_RLatLon0.09_PT012H.grib2 2026-05-08 14:43 410K
20260508T12Z_MSC_RDPS_AirTemp_IsbL-0225_RLatLon0.09_PT012H.grib2 2026-05-08 14:43 411K
20260508T12Z_MSC_RDPS_AirTemp_IsbL-0250_RLatLon0.09_PT012H.grib2 2026-05-08 14:43 419K
20260508T12Z_MSC_RDPS_AirTemp_IsbL-0275_RLatLon0.09_PT012H.grib2 2026-05-08 14:43 399K
20260508T12Z_MSC_RDPS_AirTemp_IsbL-0300_RLatLon0.09_PT012H.grib2 2026-05-08 14:43 430K
20260508T12Z_MSC_RDPS_AirTemp_IsbL-0350_RLatLon0.09_PT012H.grib2 2026-05-08 14:43 419K
20260508T12Z_MSC_RDPS_AirTemp_IsbL-0400_RLatLon0.09_PT012H.grib2 2026-05-08 14:43 422K
20260508T12Z_MSC_RDPS_AirTemp_IsbL-0450_RLatLon0.09_PT012H.grib2 2026-05-08 14:43 397K
20260508T12Z_MSC_RDPS_AirTemp_IsbL-0500_RLatLon0.09_PT012H.grib2 2026-05-08 14:43 412K
20260508T12Z_MSC_RDPS_AirTemp_IsbL-0550_RLatLon0.09_PT012H.grib2 2026-05-08 14:43 468K
20260508T12Z_MSC_RDPS_AirTemp_IsbL-0600_RLatLon0.09_PT012H.grib2 2026-05-08 14:43 452K
20260508T12Z_MSC_RDPS_AirTemp_IsbL-0650_RLatLon0.09_PT012H.grib2 2026-05-08 14:43 467K
20260508T12Z_MSC_RDPS_AirTemp_IsbL-0700_RLatLon0.09_PT012H.grib2 2026-05-08 14:43 492K
20260508T12Z_MSC_RDPS_AirTemp_IsbL-0750_RLatLon0.09_PT012H.grib2 2026-05-08 14:43 529K
20260508T12Z_MSC_RDPS_AirTemp_IsbL-0800_RLatLon0.09_PT012H.grib2 2026-05-08 14:43 456K
20260508T12Z_MSC_RDPS_AirTemp_IsbL-0850_RLatLon0.09_PT012H.grib2 2026-05-08 14:43 497K
20260508T12Z_MSC_RDPS_AirTemp_IsbL-0875_RLatLon0.09_PT012H.grib2 2026-05-08 14:43 512K
20260508T12Z_MSC_RDPS_AirTemp_IsbL-0900_RLatLon0.09_PT012H.grib2 2026-05-08 14:43 520K
20260508T12Z_MSC_RDPS_AirTemp_IsbL-0925_RLatLon0.09_PT012H.grib2 2026-05-08 14:43 521K
20260508T12Z_MSC_RDPS_AirTemp_IsbL-0950_RLatLon0.09_PT012H.grib2 2026-05-08 14:43 522K
20260508T12Z_MSC_RDPS_AirTemp_IsbL-0970_RLatLon0.09_PT012H.grib2 2026-05-08 14:43 516K
20260508T12Z_MSC_RDPS_AirTemp_IsbL-0985_RLatLon0.09_PT012H.grib2 2026-05-08 14:43 516K
20260508T12Z_MSC_RDPS_AirTemp_IsbL-1000_RLatLon0.09_PT012H.grib2 2026-05-08 14:43 496K
20260508T12Z_MSC_RDPS_AirTemp_IsbL-1015_RLatLon0.09_PT012H.grib2 2026-05-08 14:43 494K
20260508T12Z_MSC_RDPS_Albedo_Sfc_RLatLon0.09_PT012H.grib2 2026-05-08 14:43 155K
20260508T12Z_MSC_RDPS_CAPE_Sfc_RLatLon0.09_PT012H.grib2 2026-05-08 14:43 1.8M
20260508T12Z_MSC_RDPS_CIN_Sfc_RLatLon0.09_PT012H.grib2 2026-05-08 14:43 1.3M
20260508T12Z_MSC_RDPS_CloudWater_EAtm_RLatLon0.09_PT012H.grib2 2026-05-08 14:43 228K
20260508T12Z_MSC_RDPS_ConvectivePrecip-Accum_Sfc_RLatLon0.09_PT012H.grib2 2026-05-08 14:43 698K
20260508T12Z_MSC_RDPS_DewPointDepression_AGL-2m_RLatLon0.09_PT012H.grib2 2026-05-08 14:43 415K
20260508T12Z_MSC_RDPS_DewPointDepression_IsbL-0001_RLatLon0.09_PT012H.grib2 2026-05-08 14:43 193
20260508T12Z_MSC_RDPS_DewPointDepression_IsbL-0005_RLatLon0.09_PT012H.grib2 2026-05-08 14:43 193
20260508T12Z_MSC_RDPS_DewPointDepression_IsbL-0010_RLatLon0.09_PT012H.grib2 2026-05-08 14:43 193
20260508T12Z_MSC_RDPS_DewPointDepression_IsbL-0020_RLatLon0.09_PT012H.grib2 2026-05-08 14:43 193
20260508T12Z_MSC_RDPS_DewPointDepression_IsbL-0030_RLatLon0.09_PT012H.grib2 2026-05-08 14:43 193
20260508T12Z_MSC_RDPS_DewPointDepression_IsbL-0050_RLatLon0.09_PT012H.grib2 2026-05-08 14:43 82K
20260508T12Z_MSC_RDPS_DewPointDepression_IsbL-0100_RLatLon0.09_PT012H.grib2 2026-05-08 14:43 109K
20260508T12Z_MSC_RDPS_DewPointDepression_IsbL-0150_RLatLon0.09_PT012H.grib2 2026-05-08 14:43 145K
20260508T12Z_MSC_RDPS_DewPointDepression_IsbL-0175_RLatLon0.09_PT012H.grib2 2026-05-08 14:43 176K
20260508T12Z_MSC_RDPS_DewPointDepression_IsbL-0200_RLatLon0.09_PT012H.grib2 2026-05-08 14:43 223K
20260508T12Z_MSC_RDPS_DewPointDepression_IsbL-0225_RLatLon0.09_PT012H.grib2 2026-05-08 14:43 260K
20260508T12Z_MSC_RDPS_DewPointDepression_IsbL-0250_RLatLon0.09_PT012H.grib2 2026-05-08 14:43 302K
20260508T12Z_MSC_RDPS_DewPointDepression_IsbL-0275_RLatLon0.09_PT012H.grib2 2026-05-08 14:43 310K
20260508T12Z_MSC_RDPS_DewPointDepression_IsbL-0300_RLatLon0.09_PT012H.grib2 2026-05-08 14:43 322K
20260508T12Z_MSC_RDPS_DewPointDepression_IsbL-0350_RLatLon0.09_PT012H.grib2 2026-05-08 14:43 324K
20260508T12Z_MSC_RDPS_DewPointDepression_IsbL-0400_RLatLon0.09_PT012H.grib2 2026-05-08 14:43 332K
20260508T12Z_MSC_RDPS_DewPointDepression_IsbL-0450_RLatLon0.09_PT012H.grib2 2026-05-08 14:43 336K
20260508T12Z_MSC_RDPS_DewPointDepression_IsbL-0500_RLatLon0.09_PT012H.grib2 2026-05-08 14:43 342K
20260508T12Z_MSC_RDPS_DewPointDepression_IsbL-0550_RLatLon0.09_PT012H.grib2 2026-05-08 14:43 358K
20260508T12Z_MSC_RDPS_DewPointDepression_IsbL-0600_RLatLon0.09_PT012H.grib2 2026-05-08 14:43 377K
20260508T12Z_MSC_RDPS_DewPointDepression_IsbL-0650_RLatLon0.09_PT012H.grib2 2026-05-08 14:43 387K
20260508T12Z_MSC_RDPS_DewPointDepression_IsbL-0700_RLatLon0.09_PT012H.grib2 2026-05-08 14:43 400K
20260508T12Z_MSC_RDPS_DewPointDepression_IsbL-0750_RLatLon0.09_PT012H.grib2 2026-05-08 14:43 421K
20260508T12Z_MSC_RDPS_DewPointDepression_IsbL-0800_RLatLon0.09_PT012H.grib2 2026-05-08 14:43 459K
20260508T12Z_MSC_RDPS_DewPointDepression_IsbL-0850_RLatLon0.09_PT012H.grib2 2026-05-08 14:43 477K
20260508T12Z_MSC_RDPS_DewPointDepression_IsbL-0875_RLatLon0.09_PT012H.grib2 2026-05-08 14:43 474K
20260508T12Z_MSC_RDPS_DewPointDepression_IsbL-0900_RLatLon0.09_PT012H.grib2 2026-05-08 14:43 465K
20260508T12Z_MSC_RDPS_DewPointDepression_IsbL-0925_RLatLon0.09_PT012H.grib2 2026-05-08 14:43 453K
20260508T12Z_MSC_RDPS_DewPointDepression_IsbL-0950_RLatLon0.09_PT012H.grib2 2026-05-08 14:43 442K
20260508T12Z_MSC_RDPS_DewPointDepression_IsbL-0970_RLatLon0.09_PT012H.grib2 2026-05-08 14:43 434K
20260508T12Z_MSC_RDPS_DewPointDepression_IsbL-0985_RLatLon0.09_PT012H.grib2 2026-05-08 14:43 427K
20260508T12Z_MSC_RDPS_DewPointDepression_IsbL-1000_RLatLon0.09_PT012H.grib2 2026-05-08 14:43 424K
20260508T12Z_MSC_RDPS_DewPointDepression_IsbL-1015_RLatLon0.09_PT012H.grib2 2026-05-08 14:43 413K
20260508T12Z_MSC_RDPS_DewPoint_AGL-2m_RLatLon0.09_PT012H.grib2 2026-05-08 14:43 398K
20260508T12Z_MSC_RDPS_DownwardLongwaveRadiationFlux-Accum_Sfc_RLatLon0.09_PT012H.grib2 2026-05-08 14:43 470K
20260508T12Z_MSC_RDPS_DownwardShortwaveRadiationFlux-Accum_NTAtm_RLatLon0.09_PT012H.grib2 2026-05-08 14:43 111K
20260508T12Z_MSC_RDPS_DownwardShortwaveRadiationFlux-Accum_Sfc_RLatLon0.09_PT012H.grib2 2026-05-08 14:43 601K
20260508T12Z_MSC_RDPS_FreezingRain-Accum12h_Sfc_RLatLon0.09_PT012H.grib2 2026-05-08 14:43 67K
20260508T12Z_MSC_RDPS_FreezingRain-Accum1h_Sfc_RLatLon0.09_PT012H.grib2 2026-05-08 14:43 26K
20260508T12Z_MSC_RDPS_FreezingRain-Accum3h_Sfc_RLatLon0.09_PT012H.grib2 2026-05-08 14:43 31K
20260508T12Z_MSC_RDPS_FreezingRain-Accum6h_Sfc_RLatLon0.09_PT012H.grib2 2026-05-08 14:43 44K
20260508T12Z_MSC_RDPS_FreezingRain-Accum_Sfc_RLatLon0.09_PT012H.grib2 2026-05-08 14:43 76K
20260508T12Z_MSC_RDPS_GeopotentialHeight_IsbL-0001_RLatLon0.09_PT012H.grib2 2026-05-08 14:43 313K
20260508T12Z_MSC_RDPS_GeopotentialHeight_IsbL-0005_RLatLon0.09_PT012H.grib2 2026-05-08 14:43 303K
20260508T12Z_MSC_RDPS_GeopotentialHeight_IsbL-0010_RLatLon0.09_PT012H.grib2 2026-05-08 14:43 304K
20260508T12Z_MSC_RDPS_GeopotentialHeight_IsbL-0020_RLatLon0.09_PT012H.grib2 2026-05-08 14:43 304K
20260508T12Z_MSC_RDPS_GeopotentialHeight_IsbL-0030_RLatLon0.09_PT012H.grib2 2026-05-08 14:43 306K
20260508T12Z_MSC_RDPS_GeopotentialHeight_IsbL-0050_RLatLon0.09_PT012H.grib2 2026-05-08 14:43 308K
20260508T12Z_MSC_RDPS_GeopotentialHeight_IsbL-0100_RLatLon0.09_PT012H.grib2 2026-05-08 14:43 285K
20260508T12Z_MSC_RDPS_GeopotentialHeight_IsbL-0150_RLatLon0.09_PT012H.grib2 2026-05-08 14:43 227K
20260508T12Z_MSC_RDPS_GeopotentialHeight_IsbL-0175_RLatLon0.09_PT012H.grib2 2026-05-08 14:43 230K
20260508T12Z_MSC_RDPS_GeopotentialHeight_IsbL-0200_RLatLon0.09_PT012H.grib2 2026-05-08 14:43 265K
20260508T12Z_MSC_RDPS_GeopotentialHeight_IsbL-0225_RLatLon0.09_PT012H.grib2 2026-05-08 14:43 266K
20260508T12Z_MSC_RDPS_GeopotentialHeight_IsbL-0250_RLatLon0.09_PT012H.grib2 2026-05-08 14:43 267K
20260508T12Z_MSC_RDPS_GeopotentialHeight_IsbL-0275_RLatLon0.09_PT012H.grib2 2026-05-08 14:43 266K
20260508T12Z_MSC_RDPS_GeopotentialHeight_IsbL-0300_RLatLon0.09_PT012H.grib2 2026-05-08 14:43 235K
20260508T12Z_MSC_RDPS_GeopotentialHeight_IsbL-0350_RLatLon0.09_PT012H.grib2 2026-05-08 14:43 232K
20260508T12Z_MSC_RDPS_GeopotentialHeight_IsbL-0400_RLatLon0.09_PT012H.grib2 2026-05-08 14:43 228K
20260508T12Z_MSC_RDPS_GeopotentialHeight_IsbL-0450_RLatLon0.09_PT012H.grib2 2026-05-08 14:43 295K
20260508T12Z_MSC_RDPS_GeopotentialHeight_IsbL-0500_RLatLon0.09_PT012H.grib2 2026-05-08 14:43 290K
20260508T12Z_MSC_RDPS_GeopotentialHeight_IsbL-0550_RLatLon0.09_PT012H.grib2 2026-05-08 14:43 287K
20260508T12Z_MSC_RDPS_GeopotentialHeight_IsbL-0600_RLatLon0.09_PT012H.grib2 2026-05-08 14:43 286K
20260508T12Z_MSC_RDPS_GeopotentialHeight_IsbL-0650_RLatLon0.09_PT012H.grib2 2026-05-08 14:43 256K
20260508T12Z_MSC_RDPS_GeopotentialHeight_IsbL-0700_RLatLon0.09_PT012H.grib2 2026-05-08 14:43 256K
20260508T12Z_MSC_RDPS_GeopotentialHeight_IsbL-0750_RLatLon0.09_PT012H.grib2 2026-05-08 14:43 258K
20260508T12Z_MSC_RDPS_GeopotentialHeight_IsbL-0800_RLatLon0.09_PT012H.grib2 2026-05-08 14:43 346K
20260508T12Z_MSC_RDPS_GeopotentialHeight_IsbL-0850_RLatLon0.09_PT012H.grib2 2026-05-08 14:43 352K
20260508T12Z_MSC_RDPS_GeopotentialHeight_IsbL-0875_RLatLon0.09_PT012H.grib2 2026-05-08 14:43 353K
20260508T12Z_MSC_RDPS_GeopotentialHeight_IsbL-0900_RLatLon0.09_PT012H.grib2 2026-05-08 14:43 359K
20260508T12Z_MSC_RDPS_GeopotentialHeight_IsbL-0925_RLatLon0.09_PT012H.grib2 2026-05-08 14:43 363K
20260508T12Z_MSC_RDPS_GeopotentialHeight_IsbL-0950_RLatLon0.09_PT012H.grib2 2026-05-08 14:43 366K
20260508T12Z_MSC_RDPS_GeopotentialHeight_IsbL-0970_RLatLon0.09_PT012H.grib2 2026-05-08 14:43 371K
20260508T12Z_MSC_RDPS_GeopotentialHeight_IsbL-0985_RLatLon0.09_PT012H.grib2 2026-05-08 14:43 379K
20260508T12Z_MSC_RDPS_GeopotentialHeight_IsbL-1000_RLatLon0.09_PT012H.grib2 2026-05-08 14:43 391K
20260508T12Z_MSC_RDPS_GeopotentialHeight_IsbL-1015_RLatLon0.09_PT012H.grib2 2026-05-08 14:43 404K
20260508T12Z_MSC_RDPS_HighLowPressure_MSL_RLatLon0.09_PT012H.json 2026-05-08 14:36 20K
20260508T12Z_MSC_RDPS_Humidex_Sfc_RLatLon0.09_PT012H.grib2 2026-05-08 14:43 2.4M
20260508T12Z_MSC_RDPS_IcePellets-Accum12h_Sfc_RLatLon0.09_PT012H.grib2 2026-05-08 14:43 13K
20260508T12Z_MSC_RDPS_IcePellets-Accum1h_Sfc_RLatLon0.09_PT012H.grib2 2026-05-08 14:43 8.2K
20260508T12Z_MSC_RDPS_IcePellets-Accum3h_Sfc_RLatLon0.09_PT012H.grib2 2026-05-08 14:43 8.8K
20260508T12Z_MSC_RDPS_IcePellets-Accum6h_Sfc_RLatLon0.09_PT012H.grib2 2026-05-08 14:43 11K
20260508T12Z_MSC_RDPS_IcePellets-Accum_Sfc_RLatLon0.09_PT012H.grib2 2026-05-08 14:43 13K
20260508T12Z_MSC_RDPS_KIndex_Sfc_RLatLon0.09_PT012H.grib2 2026-05-08 14:43 2.5M
20260508T12Z_MSC_RDPS_LatentHeatNetFlux_Sfc_RLatLon0.09_PT012H.grib2 2026-05-08 14:43 366K
20260508T12Z_MSC_RDPS_LiftedIndex-MU-VT_IsbL-0500_RLatLon0.09_PT012H.grib2 2026-05-08 14:43 2.4M
20260508T12Z_MSC_RDPS_NetLongwaveRadiationFlux-Accum_Sfc_RLatLon0.09_PT012H.grib2 2026-05-08 14:43 497K
20260508T12Z_MSC_RDPS_NetShortwaveRadiationFlux-Accum_Sfc_RLatLon0.09_PT012H.grib2 2026-05-08 14:43 595K
20260508T12Z_MSC_RDPS_PlanetaryBoundaryLayerHeight_Sfc_RLatLon0.09_PT012H.grib2 2026-05-08 14:43 1.0M
20260508T12Z_MSC_RDPS_Precip-Accum12h_Sfc_RLatLon0.09_PT012H.grib2 2026-05-08 14:43 1.6M
20260508T12Z_MSC_RDPS_Precip-Accum1h_Sfc_RLatLon0.09_PT012H.grib2 2026-05-08 14:43 1.2M
20260508T12Z_MSC_RDPS_Precip-Accum3h_Sfc_RLatLon0.09_PT012H.grib2 2026-05-08 14:43 1.3M
20260508T12Z_MSC_RDPS_Precip-Accum6h_Sfc_RLatLon0.09_PT012H.grib2 2026-05-08 14:43 1.4M
20260508T12Z_MSC_RDPS_Precip-Accum_Sfc_RLatLon0.09_PT012H.grib2 2026-05-08 14:43 1.6M
20260508T12Z_MSC_RDPS_PrecipRate_Sfc_RLatLon0.09_PT012H.grib2 2026-05-08 14:43 164K
20260508T12Z_MSC_RDPS_PrecipType-Instant_Sfc_RLatLon0.09_PT012H.grib2 2026-05-08 14:43 581K
20260508T12Z_MSC_RDPS_Pressure-Trend3h_Sfc_RLatLon0.09_PT012H.grib2 2026-05-08 14:43 1.2M
20260508T12Z_MSC_RDPS_Pressure_MSL_RLatLon0.09_PT012H.grib2 2026-05-08 14:43 326K
20260508T12Z_MSC_RDPS_Pressure_PVU-1.5_RLatLon0.09_PT012H.grib2 2026-05-08 14:43 2.5M
20260508T12Z_MSC_RDPS_Pressure_PVU-1_RLatLon0.09_PT012H.grib2 2026-05-08 14:43 2.4M
20260508T12Z_MSC_RDPS_Pressure_PVU-2_RLatLon0.09_PT012H.grib2 2026-05-08 14:43 2.4M
20260508T12Z_MSC_RDPS_Pressure_Sfc_RLatLon0.09_PT012H.grib2 2026-05-08 14:43 498K
20260508T12Z_MSC_RDPS_RadiativeTemp_Sfc_RLatLon0.09_PT012H.grib2 2026-05-08 14:43 315K
20260508T12Z_MSC_RDPS_Rain-Accum12h_Sfc_RLatLon0.09_PT012H.grib2 2026-05-08 14:43 1.1M
20260508T12Z_MSC_RDPS_Rain-Accum1h_Sfc_RLatLon0.09_PT012H.grib2 2026-05-08 14:43 559K
20260508T12Z_MSC_RDPS_Rain-Accum3h_Sfc_RLatLon0.09_PT012H.grib2 2026-05-08 14:43 664K
20260508T12Z_MSC_RDPS_Rain-Accum6h_Sfc_RLatLon0.09_PT012H.grib2 2026-05-08 14:43 960K
20260508T12Z_MSC_RDPS_Rain-Accum_Sfc_RLatLon0.09_PT012H.grib2 2026-05-08 14:43 1.2M
20260508T12Z_MSC_RDPS_RelativeHumidity_AGL-2m_RLatLon0.09_PT012H.grib2 2026-05-08 14:43 1.0M
20260508T12Z_MSC_RDPS_RelativeHumidity_IsbL-0010_RLatLon0.09_PT012H.grib2 2026-05-08 14:43 575K
20260508T12Z_MSC_RDPS_RelativeHumidity_IsbL-0020_RLatLon0.09_PT012H.grib2 2026-05-08 14:43 648K
20260508T12Z_MSC_RDPS_RelativeHumidity_IsbL-0030_RLatLon0.09_PT012H.grib2 2026-05-08 14:43 629K
20260508T12Z_MSC_RDPS_RelativeHumidity_IsbL-0050_RLatLon0.09_PT012H.grib2 2026-05-08 14:43 360K
20260508T12Z_MSC_RDPS_RelativeHumidity_IsbL-0100_RLatLon0.09_PT012H.grib2 2026-05-08 14:43 277K
20260508T12Z_MSC_RDPS_RelativeHumidity_IsbL-0150_RLatLon0.09_PT012H.grib2 2026-05-08 14:43 415K
20260508T12Z_MSC_RDPS_RelativeHumidity_IsbL-0175_RLatLon0.09_PT012H.grib2 2026-05-08 14:43 477K
20260508T12Z_MSC_RDPS_RelativeHumidity_IsbL-0200_RLatLon0.09_PT012H.grib2 2026-05-08 14:43 550K
20260508T12Z_MSC_RDPS_RelativeHumidity_IsbL-0225_RLatLon0.09_PT012H.grib2 2026-05-08 14:43 618K
20260508T12Z_MSC_RDPS_RelativeHumidity_IsbL-0250_RLatLon0.09_PT012H.grib2 2026-05-08 14:43 684K
20260508T12Z_MSC_RDPS_RelativeHumidity_IsbL-0275_RLatLon0.09_PT012H.grib2 2026-05-08 14:43 710K
20260508T12Z_MSC_RDPS_RelativeHumidity_IsbL-0300_RLatLon0.09_PT012H.grib2 2026-05-08 14:43 748K
20260508T12Z_MSC_RDPS_RelativeHumidity_IsbL-0350_RLatLon0.09_PT012H.grib2 2026-05-08 14:43 760K
20260508T12Z_MSC_RDPS_RelativeHumidity_IsbL-0400_RLatLon0.09_PT012H.grib2 2026-05-08 14:43 775K
20260508T12Z_MSC_RDPS_RelativeHumidity_IsbL-0450_RLatLon0.09_PT012H.grib2 2026-05-08 14:43 783K
20260508T12Z_MSC_RDPS_RelativeHumidity_IsbL-0500_RLatLon0.09_PT012H.grib2 2026-05-08 14:43 792K
20260508T12Z_MSC_RDPS_RelativeHumidity_IsbL-0550_RLatLon0.09_PT012H.grib2 2026-05-08 14:43 826K
20260508T12Z_MSC_RDPS_RelativeHumidity_IsbL-0600_RLatLon0.09_PT012H.grib2 2026-05-08 14:43 853K
20260508T12Z_MSC_RDPS_RelativeHumidity_IsbL-0650_RLatLon0.09_PT012H.grib2 2026-05-08 14:43 873K
20260508T12Z_MSC_RDPS_RelativeHumidity_IsbL-0700_RLatLon0.09_PT012H.grib2 2026-05-08 14:43 903K
20260508T12Z_MSC_RDPS_RelativeHumidity_IsbL-0750_RLatLon0.09_PT012H.grib2 2026-05-08 14:43 947K
20260508T12Z_MSC_RDPS_RelativeHumidity_IsbL-0800_RLatLon0.09_PT012H.grib2 2026-05-08 14:43 1.0M
20260508T12Z_MSC_RDPS_RelativeHumidity_IsbL-0850_RLatLon0.09_PT012H.grib2 2026-05-08 14:43 1.0M
20260508T12Z_MSC_RDPS_RelativeHumidity_IsbL-0875_RLatLon0.09_PT012H.grib2 2026-05-08 14:43 1.1M
20260508T12Z_MSC_RDPS_RelativeHumidity_IsbL-0900_RLatLon0.09_PT012H.grib2 2026-05-08 14:43 1.1M
20260508T12Z_MSC_RDPS_RelativeHumidity_IsbL-0925_RLatLon0.09_PT012H.grib2 2026-05-08 14:43 1.1M
20260508T12Z_MSC_RDPS_RelativeHumidity_IsbL-0950_RLatLon0.09_PT012H.grib2 2026-05-08 14:43 1.1M
20260508T12Z_MSC_RDPS_RelativeHumidity_IsbL-0970_RLatLon0.09_PT012H.grib2 2026-05-08 14:43 1.0M
20260508T12Z_MSC_RDPS_RelativeHumidity_IsbL-0985_RLatLon0.09_PT012H.grib2 2026-05-08 14:43 1.0M
20260508T12Z_MSC_RDPS_RelativeHumidity_IsbL-1000_RLatLon0.09_PT012H.grib2 2026-05-08 14:43 1.0M
20260508T12Z_MSC_RDPS_RelativeHumidity_IsbL-1015_RLatLon0.09_PT012H.grib2 2026-05-08 14:43 1.0M
20260508T12Z_MSC_RDPS_Runoff-Accum_Sfc_RLatLon0.09_PT012H.grib2 2026-05-08 14:43 33K
20260508T12Z_MSC_RDPS_SWEATIndex_Sfc_RLatLon0.09_PT012H.grib2 2026-05-08 14:43 2.4M
20260508T12Z_MSC_RDPS_SeeingIndex_EAtm_RLatLon0.09_PT012H.grib2 2026-05-08 14:43 1.0M
20260508T12Z_MSC_RDPS_SensibleHeatNetFlux_Sfc_RLatLon0.09_PT012H.grib2 2026-05-08 14:43 320K
20260508T12Z_MSC_RDPS_ShowalterIndex_IsbL-0500_RLatLon0.09_PT012H.grib2 2026-05-08 14:43 2.6M
20260508T12Z_MSC_RDPS_SkyTransparencyIndex_EAtm_RLatLon0.09_PT012H.grib2 2026-05-08 14:43 702K
20260508T12Z_MSC_RDPS_Snow-Accum12h_Sfc_RLatLon0.09_PT012H.grib2 2026-05-08 14:43 565K
20260508T12Z_MSC_RDPS_Snow-Accum1h_Sfc_RLatLon0.09_PT012H.grib2 2026-05-08 14:43 406K
20260508T12Z_MSC_RDPS_Snow-Accum3h_Sfc_RLatLon0.09_PT012H.grib2 2026-05-08 14:43 411K
20260508T12Z_MSC_RDPS_Snow-Accum6h_Sfc_RLatLon0.09_PT012H.grib2 2026-05-08 14:43 524K
20260508T12Z_MSC_RDPS_Snow-Accum_Sfc_RLatLon0.09_PT012H.grib2 2026-05-08 14:43 603K
20260508T12Z_MSC_RDPS_SnowDensity_Sfc_RLatLon0.09_PT012H.grib2 2026-05-08 14:43 166K
20260508T12Z_MSC_RDPS_SnowDepth_Sfc_RLatLon0.09_PT012H.grib2 2026-05-08 14:43 619K
20260508T12Z_MSC_RDPS_SoilTemp_DBS-0to10cm_RLatLon0.09_PT012H.grib2 2026-05-08 14:43 222K
20260508T12Z_MSC_RDPS_SoilTemp_Sfc_RLatLon0.09_PT012H.grib2 2026-05-08 14:43 280K
20260508T12Z_MSC_RDPS_SoilVolumetricIceContent_Sfc_RLatLon0.09_PT012H.grib2 2026-05-08 14:43 146K
20260508T12Z_MSC_RDPS_SoilVolumetricWaterContent_DBS-0to10cm_RLatLon0.09_PT012H.grib2 2026-05-08 14:43 286K
20260508T12Z_MSC_RDPS_SoilVolumetricWaterContent_DBS-0to1cm_RLatLon0.09_PT012H.grib2 2026-05-08 14:43 337K
20260508T12Z_MSC_RDPS_SpecificHumidity_AGL-120m_RLatLon0.09_PT012H.grib2 2026-05-08 14:43 497K
20260508T12Z_MSC_RDPS_SpecificHumidity_AGL-2m_RLatLon0.09_PT012H.grib2 2026-05-08 14:43 672K
20260508T12Z_MSC_RDPS_SpecificHumidity_AGL-40m_RLatLon0.09_PT012H.grib2 2026-05-08 14:43 504K
20260508T12Z_MSC_RDPS_SpecificHumidity_AGL-80m_RLatLon0.09_PT012H.grib2 2026-05-08 14:43 499K
20260508T12Z_MSC_RDPS_SpecificHumidity_IsbL-0001_RLatLon0.09_PT012H.grib2 2026-05-08 14:43 362K
20260508T12Z_MSC_RDPS_SpecificHumidity_IsbL-0005_RLatLon0.09_PT012H.grib2 2026-05-08 14:43 372K
20260508T12Z_MSC_RDPS_SpecificHumidity_IsbL-0010_RLatLon0.09_PT012H.grib2 2026-05-08 14:43 401K
20260508T12Z_MSC_RDPS_SpecificHumidity_IsbL-0020_RLatLon0.09_PT012H.grib2 2026-05-08 14:43 380K
20260508T12Z_MSC_RDPS_SpecificHumidity_IsbL-0030_RLatLon0.09_PT012H.grib2 2026-05-08 14:43 374K
20260508T12Z_MSC_RDPS_SpecificHumidity_IsbL-0050_RLatLon0.09_PT012H.grib2 2026-05-08 14:43 484K
20260508T12Z_MSC_RDPS_SpecificHumidity_IsbL-0100_RLatLon0.09_PT012H.grib2 2026-05-08 14:43 445K
20260508T12Z_MSC_RDPS_SpecificHumidity_IsbL-0150_RLatLon0.09_PT012H.grib2 2026-05-08 14:43 459K
20260508T12Z_MSC_RDPS_SpecificHumidity_IsbL-0175_RLatLon0.09_PT012H.grib2 2026-05-08 14:43 449K
20260508T12Z_MSC_RDPS_SpecificHumidity_IsbL-0200_RLatLon0.09_PT012H.grib2 2026-05-08 14:43 482K
20260508T12Z_MSC_RDPS_SpecificHumidity_IsbL-0225_RLatLon0.09_PT012H.grib2 2026-05-08 14:43 482K
20260508T12Z_MSC_RDPS_SpecificHumidity_IsbL-0250_RLatLon0.09_PT012H.grib2 2026-05-08 14:43 527K
20260508T12Z_MSC_RDPS_SpecificHumidity_IsbL-0275_RLatLon0.09_PT012H.grib2 2026-05-08 14:43 486K
20260508T12Z_MSC_RDPS_SpecificHumidity_IsbL-0300_RLatLon0.09_PT012H.grib2 2026-05-08 14:43 454K
20260508T12Z_MSC_RDPS_SpecificHumidity_IsbL-0350_RLatLon0.09_PT012H.grib2 2026-05-08 14:43 444K
20260508T12Z_MSC_RDPS_SpecificHumidity_IsbL-0400_RLatLon0.09_PT012H.grib2 2026-05-08 14:43 522K
20260508T12Z_MSC_RDPS_SpecificHumidity_IsbL-0450_RLatLon0.09_PT012H.grib2 2026-05-08 14:43 459K
20260508T12Z_MSC_RDPS_SpecificHumidity_IsbL-0500_RLatLon0.09_PT012H.grib2 2026-05-08 14:43 512K
20260508T12Z_MSC_RDPS_SpecificHumidity_IsbL-0550_RLatLon0.09_PT012H.grib2 2026-05-08 14:43 586K
20260508T12Z_MSC_RDPS_SpecificHumidity_IsbL-0600_RLatLon0.09_PT012H.grib2 2026-05-08 14:43 645K
20260508T12Z_MSC_RDPS_SpecificHumidity_IsbL-0650_RLatLon0.09_PT012H.grib2 2026-05-08 14:43 568K
20260508T12Z_MSC_RDPS_SpecificHumidity_IsbL-0700_RLatLon0.09_PT012H.grib2 2026-05-08 14:43 620K
20260508T12Z_MSC_RDPS_SpecificHumidity_IsbL-0750_RLatLon0.09_PT012H.grib2 2026-05-08 14:43 678K
20260508T12Z_MSC_RDPS_SpecificHumidity_IsbL-0800_RLatLon0.09_PT012H.grib2 2026-05-08 14:43 765K
20260508T12Z_MSC_RDPS_SpecificHumidity_IsbL-0850_RLatLon0.09_PT012H.grib2 2026-05-08 14:43 828K
20260508T12Z_MSC_RDPS_SpecificHumidity_IsbL-0875_RLatLon0.09_PT012H.grib2 2026-05-08 14:43 709K
20260508T12Z_MSC_RDPS_SpecificHumidity_IsbL-0900_RLatLon0.09_PT012H.grib2 2026-05-08 14:43 721K
20260508T12Z_MSC_RDPS_SpecificHumidity_IsbL-0925_RLatLon0.09_PT012H.grib2 2026-05-08 14:43 723K
20260508T12Z_MSC_RDPS_SpecificHumidity_IsbL-0950_RLatLon0.09_PT012H.grib2 2026-05-08 14:43 721K
20260508T12Z_MSC_RDPS_SpecificHumidity_IsbL-0970_RLatLon0.09_PT012H.grib2 2026-05-08 14:43 713K
20260508T12Z_MSC_RDPS_SpecificHumidity_IsbL-0985_RLatLon0.09_PT012H.grib2 2026-05-08 14:43 702K
20260508T12Z_MSC_RDPS_SpecificHumidity_IsbL-1000_RLatLon0.09_PT012H.grib2 2026-05-08 14:43 695K
20260508T12Z_MSC_RDPS_SpecificHumidity_IsbL-1015_RLatLon0.09_PT012H.grib2 2026-05-08 14:43 685K
20260508T12Z_MSC_RDPS_SpecificHumidity_Sfc_RLatLon0.09_PT012H.grib2 2026-05-08 14:43 343K
20260508T12Z_MSC_RDPS_StormRelativeHelicity_EtaL-10000_RLatLon0.09_PT012H.grib2 2026-05-08 14:43 1.1M
20260508T12Z_MSC_RDPS_StormSeverityIndex_EtaL-10000_RLatLon0.09_PT012H.grib2 2026-05-08 14:43 1.2M
20260508T12Z_MSC_RDPS_Thickness_IsbL-0850to0700_RLatLon0.09_PT012H.grib2 2026-05-08 14:43 176K
20260508T12Z_MSC_RDPS_Thickness_IsbL-1000to0500_RLatLon0.09_PT012H.grib2 2026-05-08 14:43 196K
20260508T12Z_MSC_RDPS_Thickness_IsbL-1000to0850_RLatLon0.09_PT012H.grib2 2026-05-08 14:43 260K
20260508T12Z_MSC_RDPS_TotalCloudCover_Sfc_RLatLon0.09_PT012H.grib2 2026-05-08 14:43 656K
20260508T12Z_MSC_RDPS_TotalTotalsIndex_Sfc_RLatLon0.09_PT012H.grib2 2026-05-08 14:43 2.4M
20260508T12Z_MSC_RDPS_UVIndex-ClearSky_Sfc_RLatLon0.09_PT012H.grib2 2026-05-08 14:43 196K
20260508T12Z_MSC_RDPS_UVIndex_Sfc_RLatLon0.09_PT012H.grib2 2026-05-08 14:43 410K
20260508T12Z_MSC_RDPS_UpwardLongwaveRadiationFlux_NTAtm_RLatLon0.09_PT012H.grib2 2026-05-08 14:43 381K
20260508T12Z_MSC_RDPS_UpwardShortwaveRadiationFlux_NTAtm_RLatLon0.09_PT012H.grib2 2026-05-08 14:43 350K
20260508T12Z_MSC_RDPS_VerticalVelocity_IsbL-0250_RLatLon0.09_PT012H.grib2 2026-05-08 14:43 577K
20260508T12Z_MSC_RDPS_VerticalVelocity_IsbL-0500_RLatLon0.09_PT012H.grib2 2026-05-08 14:43 533K
20260508T12Z_MSC_RDPS_VerticalVelocity_IsbL-0700_RLatLon0.09_PT012H.grib2 2026-05-08 14:43 605K
20260508T12Z_MSC_RDPS_VerticalVelocity_IsbL-0850_RLatLon0.09_PT012H.grib2 2026-05-08 14:43 706K
20260508T12Z_MSC_RDPS_VerticalWindShear_EtaL-6500_RLatLon0.09_PT012H.grib2 2026-05-08 14:43 1.2M
20260508T12Z_MSC_RDPS_WindChill_Sfc_RLatLon0.09_PT012H.grib2 2026-05-08 14:43 1.2M
20260508T12Z_MSC_RDPS_WindDir_AGL-10m_RLatLon0.09_PT012H.grib2 2026-05-08 14:43 949K
20260508T12Z_MSC_RDPS_WindDir_AGL-120m_RLatLon0.09_PT012H.grib2 2026-05-08 14:43 594K
20260508T12Z_MSC_RDPS_WindDir_AGL-40m_RLatLon0.09_PT012H.grib2 2026-05-08 14:43 619K
20260508T12Z_MSC_RDPS_WindDir_AGL-80m_RLatLon0.09_PT012H.grib2 2026-05-08 14:43 604K
20260508T12Z_MSC_RDPS_WindDir_IsbL-0001_RLatLon0.09_PT012H.grib2 2026-05-08 14:43 294K
20260508T12Z_MSC_RDPS_WindDir_IsbL-0005_RLatLon0.09_PT012H.grib2 2026-05-08 14:43 368K
20260508T12Z_MSC_RDPS_WindDir_IsbL-0010_RLatLon0.09_PT012H.grib2 2026-05-08 14:43 374K
20260508T12Z_MSC_RDPS_WindDir_IsbL-0020_RLatLon0.09_PT012H.grib2 2026-05-08 14:43 424K
20260508T12Z_MSC_RDPS_WindDir_IsbL-0030_RLatLon0.09_PT012H.grib2 2026-05-08 14:43 411K
20260508T12Z_MSC_RDPS_WindDir_IsbL-0050_RLatLon0.09_PT012H.grib2 2026-05-08 14:43 433K
20260508T12Z_MSC_RDPS_WindDir_IsbL-0100_RLatLon0.09_PT012H.grib2 2026-05-08 14:43 406K
20260508T12Z_MSC_RDPS_WindDir_IsbL-0150_RLatLon0.09_PT012H.grib2 2026-05-08 14:43 432K
20260508T12Z_MSC_RDPS_WindDir_IsbL-0175_RLatLon0.09_PT012H.grib2 2026-05-08 14:43 452K
20260508T12Z_MSC_RDPS_WindDir_IsbL-0200_RLatLon0.09_PT012H.grib2 2026-05-08 14:43 464K
20260508T12Z_MSC_RDPS_WindDir_IsbL-0225_RLatLon0.09_PT012H.grib2 2026-05-08 14:43 469K
20260508T12Z_MSC_RDPS_WindDir_IsbL-0250_RLatLon0.09_PT012H.grib2 2026-05-08 14:43 463K
20260508T12Z_MSC_RDPS_WindDir_IsbL-0275_RLatLon0.09_PT012H.grib2 2026-05-08 14:43 481K
20260508T12Z_MSC_RDPS_WindDir_IsbL-0300_RLatLon0.09_PT012H.grib2 2026-05-08 14:43 478K
20260508T12Z_MSC_RDPS_WindDir_IsbL-0350_RLatLon0.09_PT012H.grib2 2026-05-08 14:43 502K
20260508T12Z_MSC_RDPS_WindDir_IsbL-0400_RLatLon0.09_PT012H.grib2 2026-05-08 14:43 520K
20260508T12Z_MSC_RDPS_WindDir_IsbL-0450_RLatLon0.09_PT012H.grib2 2026-05-08 14:43 539K
20260508T12Z_MSC_RDPS_WindDir_IsbL-0500_RLatLon0.09_PT012H.grib2 2026-05-08 14:43 565K
20260508T12Z_MSC_RDPS_WindDir_IsbL-0550_RLatLon0.09_PT012H.grib2 2026-05-08 14:43 575K
20260508T12Z_MSC_RDPS_WindDir_IsbL-0600_RLatLon0.09_PT012H.grib2 2026-05-08 14:43 599K
20260508T12Z_MSC_RDPS_WindDir_IsbL-0650_RLatLon0.09_PT012H.grib2 2026-05-08 14:43 635K
20260508T12Z_MSC_RDPS_WindDir_IsbL-0700_RLatLon0.09_PT012H.grib2 2026-05-08 14:43 683K
20260508T12Z_MSC_RDPS_WindDir_IsbL-0750_RLatLon0.09_PT012H.grib2 2026-05-08 14:43 733K
20260508T12Z_MSC_RDPS_WindDir_IsbL-0800_RLatLon0.09_PT012H.grib2 2026-05-08 14:43 795K
20260508T12Z_MSC_RDPS_WindDir_IsbL-0850_RLatLon0.09_PT012H.grib2 2026-05-08 14:43 850K
20260508T12Z_MSC_RDPS_WindDir_IsbL-0875_RLatLon0.09_PT012H.grib2 2026-05-08 14:43 870K
20260508T12Z_MSC_RDPS_WindDir_IsbL-0900_RLatLon0.09_PT012H.grib2 2026-05-08 14:43 885K
20260508T12Z_MSC_RDPS_WindDir_IsbL-0925_RLatLon0.09_PT012H.grib2 2026-05-08 14:43 897K
20260508T12Z_MSC_RDPS_WindDir_IsbL-0950_RLatLon0.09_PT012H.grib2 2026-05-08 14:43 900K
20260508T12Z_MSC_RDPS_WindDir_IsbL-0970_RLatLon0.09_PT012H.grib2 2026-05-08 14:43 903K
20260508T12Z_MSC_RDPS_WindDir_IsbL-0985_RLatLon0.09_PT012H.grib2 2026-05-08 14:43 911K
20260508T12Z_MSC_RDPS_WindDir_IsbL-1000_RLatLon0.09_PT012H.grib2 2026-05-08 14:43 926K
20260508T12Z_MSC_RDPS_WindDir_IsbL-1015_RLatLon0.09_PT012H.grib2 2026-05-08 14:43 942K
20260508T12Z_MSC_RDPS_WindGust-Max_AGL-10m_RLatLon0.09_PT012H.grib2 2026-05-08 14:43 1.0M
20260508T12Z_MSC_RDPS_WindGust-Min_AGL-10m_RLatLon0.09_PT012H.grib2 2026-05-08 14:43 1.0M
20260508T12Z_MSC_RDPS_WindGust_AGL-10m_RLatLon0.09_PT012H.grib2 2026-05-08 14:43 1.0M
20260508T12Z_MSC_RDPS_WindSpeed_AGL-10m_RLatLon0.09_PT012H.grib2 2026-05-08 14:43 836K
20260508T12Z_MSC_RDPS_WindSpeed_AGL-120m_RLatLon0.09_PT012H.grib2 2026-05-08 14:43 543K
20260508T12Z_MSC_RDPS_WindSpeed_AGL-40m_RLatLon0.09_PT012H.grib2 2026-05-08 14:43 539K
20260508T12Z_MSC_RDPS_WindSpeed_AGL-80m_RLatLon0.09_PT012H.grib2 2026-05-08 14:43 534K
20260508T12Z_MSC_RDPS_WindSpeed_IsbL-0001_RLatLon0.09_PT012H.grib2 2026-05-08 14:43 248K
20260508T12Z_MSC_RDPS_WindSpeed_IsbL-0005_RLatLon0.09_PT012H.grib2 2026-05-08 14:43 291K
20260508T12Z_MSC_RDPS_WindSpeed_IsbL-0010_RLatLon0.09_PT012H.grib2 2026-05-08 14:43 391K
20260508T12Z_MSC_RDPS_WindSpeed_IsbL-0020_RLatLon0.09_PT012H.grib2 2026-05-08 14:43 316K
20260508T12Z_MSC_RDPS_WindSpeed_IsbL-0030_RLatLon0.09_PT012H.grib2 2026-05-08 14:43 315K
20260508T12Z_MSC_RDPS_WindSpeed_IsbL-0050_RLatLon0.09_PT012H.grib2 2026-05-08 14:43 342K
20260508T12Z_MSC_RDPS_WindSpeed_IsbL-0100_RLatLon0.09_PT012H.grib2 2026-05-08 14:43 431K
20260508T12Z_MSC_RDPS_WindSpeed_IsbL-0150_RLatLon0.09_PT012H.grib2 2026-05-08 14:43 401K
20260508T12Z_MSC_RDPS_WindSpeed_IsbL-0175_RLatLon0.09_PT012H.grib2 2026-05-08 14:43 424K
20260508T12Z_MSC_RDPS_WindSpeed_IsbL-0200_RLatLon0.09_PT012H.grib2 2026-05-08 14:43 440K
20260508T12Z_MSC_RDPS_WindSpeed_IsbL-0225_RLatLon0.09_PT012H.grib2 2026-05-08 14:43 447K
20260508T12Z_MSC_RDPS_WindSpeed_IsbL-0250_RLatLon0.09_PT012H.grib2 2026-05-08 14:43 450K
20260508T12Z_MSC_RDPS_WindSpeed_IsbL-0275_RLatLon0.09_PT012H.grib2 2026-05-08 14:43 465K
20260508T12Z_MSC_RDPS_WindSpeed_IsbL-0300_RLatLon0.09_PT012H.grib2 2026-05-08 14:43 461K
20260508T12Z_MSC_RDPS_WindSpeed_IsbL-0350_RLatLon0.09_PT012H.grib2 2026-05-08 14:43 472K
20260508T12Z_MSC_RDPS_WindSpeed_IsbL-0400_RLatLon0.09_PT012H.grib2 2026-05-08 14:43 457K
20260508T12Z_MSC_RDPS_WindSpeed_IsbL-0450_RLatLon0.09_PT012H.grib2 2026-05-08 14:43 457K
20260508T12Z_MSC_RDPS_WindSpeed_IsbL-0500_RLatLon0.09_PT012H.grib2 2026-05-08 14:43 463K
20260508T12Z_MSC_RDPS_WindSpeed_IsbL-0550_RLatLon0.09_PT012H.grib2 2026-05-08 14:43 584K
20260508T12Z_MSC_RDPS_WindSpeed_IsbL-0600_RLatLon0.09_PT012H.grib2 2026-05-08 14:43 640K
20260508T12Z_MSC_RDPS_WindSpeed_IsbL-0650_RLatLon0.09_PT012H.grib2 2026-05-08 14:43 664K
20260508T12Z_MSC_RDPS_WindSpeed_IsbL-0700_RLatLon0.09_PT012H.grib2 2026-05-08 14:43 692K
20260508T12Z_MSC_RDPS_WindSpeed_IsbL-0750_RLatLon0.09_PT012H.grib2 2026-05-08 14:43 722K
20260508T12Z_MSC_RDPS_WindSpeed_IsbL-0800_RLatLon0.09_PT012H.grib2 2026-05-08 14:43 769K
20260508T12Z_MSC_RDPS_WindSpeed_IsbL-0850_RLatLon0.09_PT012H.grib2 2026-05-08 14:43 819K
20260508T12Z_MSC_RDPS_WindSpeed_IsbL-0875_RLatLon0.09_PT012H.grib2 2026-05-08 14:43 836K
20260508T12Z_MSC_RDPS_WindSpeed_IsbL-0900_RLatLon0.09_PT012H.grib2 2026-05-08 14:43 805K
20260508T12Z_MSC_RDPS_WindSpeed_IsbL-0925_RLatLon0.09_PT012H.grib2 2026-05-08 14:43 864K
20260508T12Z_MSC_RDPS_WindSpeed_IsbL-0950_RLatLon0.09_PT012H.grib2 2026-05-08 14:43 865K
20260508T12Z_MSC_RDPS_WindSpeed_IsbL-0970_RLatLon0.09_PT012H.grib2 2026-05-08 14:43 858K
20260508T12Z_MSC_RDPS_WindSpeed_IsbL-0985_RLatLon0.09_PT012H.grib2 2026-05-08 14:43 853K
20260508T12Z_MSC_RDPS_WindSpeed_IsbL-1000_RLatLon0.09_PT012H.grib2 2026-05-08 14:43 847K
20260508T12Z_MSC_RDPS_WindSpeed_IsbL-1015_RLatLon0.09_PT012H.grib2 2026-05-08 14:43 838K
20260508T12Z_MSC_RDPS_WindU_AGL-10m_RLatLon0.09_PT012H.grib2 2026-05-08 14:43 431K
20260508T12Z_MSC_RDPS_WindU_AGL-120m_RLatLon0.09_PT012H.grib2 2026-05-08 14:43 415K
20260508T12Z_MSC_RDPS_WindU_AGL-40m_RLatLon0.09_PT012H.grib2 2026-05-08 14:43 419K
20260508T12Z_MSC_RDPS_WindU_AGL-80m_RLatLon0.09_PT012H.grib2 2026-05-08 14:43 416K
20260508T12Z_MSC_RDPS_WindU_IsbL-0001_RLatLon0.09_PT012H.grib2 2026-05-08 14:43 239K
20260508T12Z_MSC_RDPS_WindU_IsbL-0005_RLatLon0.09_PT012H.grib2 2026-05-08 14:43 283K
20260508T12Z_MSC_RDPS_WindU_IsbL-0010_RLatLon0.09_PT012H.grib2 2026-05-08 14:43 291K
20260508T12Z_MSC_RDPS_WindU_IsbL-0020_RLatLon0.09_PT012H.grib2 2026-05-08 14:43 307K
20260508T12Z_MSC_RDPS_WindU_IsbL-0030_RLatLon0.09_PT012H.grib2 2026-05-08 14:43 307K
20260508T12Z_MSC_RDPS_WindU_IsbL-0050_RLatLon0.09_PT012H.grib2 2026-05-08 14:43 372K
20260508T12Z_MSC_RDPS_WindU_IsbL-0100_RLatLon0.09_PT012H.grib2 2026-05-08 14:43 330K
20260508T12Z_MSC_RDPS_WindU_IsbL-0150_RLatLon0.09_PT012H.grib2 2026-05-08 14:43 395K
20260508T12Z_MSC_RDPS_WindU_IsbL-0175_RLatLon0.09_PT012H.grib2 2026-05-08 14:43 418K
20260508T12Z_MSC_RDPS_WindU_IsbL-0200_RLatLon0.09_PT012H.grib2 2026-05-08 14:43 434K
20260508T12Z_MSC_RDPS_WindU_IsbL-0225_RLatLon0.09_PT012H.grib2 2026-05-08 14:43 340K
20260508T12Z_MSC_RDPS_WindU_IsbL-0250_RLatLon0.09_PT012H.grib2 2026-05-08 14:43 341K
20260508T12Z_MSC_RDPS_WindU_IsbL-0275_RLatLon0.09_PT012H.grib2 2026-05-08 14:43 353K
20260508T12Z_MSC_RDPS_WindU_IsbL-0300_RLatLon0.09_PT012H.grib2 2026-05-08 14:43 348K
20260508T12Z_MSC_RDPS_WindU_IsbL-0350_RLatLon0.09_PT012H.grib2 2026-05-08 14:43 357K
20260508T12Z_MSC_RDPS_WindU_IsbL-0400_RLatLon0.09_PT012H.grib2 2026-05-08 14:43 461K
20260508T12Z_MSC_RDPS_WindU_IsbL-0450_RLatLon0.09_PT012H.grib2 2026-05-08 14:43 463K
20260508T12Z_MSC_RDPS_WindU_IsbL-0500_RLatLon0.09_PT012H.grib2 2026-05-08 14:43 469K
20260508T12Z_MSC_RDPS_WindU_IsbL-0550_RLatLon0.09_PT012H.grib2 2026-05-08 14:43 475K
20260508T12Z_MSC_RDPS_WindU_IsbL-0600_RLatLon0.09_PT012H.grib2 2026-05-08 14:43 488K
20260508T12Z_MSC_RDPS_WindU_IsbL-0650_RLatLon0.09_PT012H.grib2 2026-05-08 14:43 491K
20260508T12Z_MSC_RDPS_WindU_IsbL-0700_RLatLon0.09_PT012H.grib2 2026-05-08 14:43 516K
20260508T12Z_MSC_RDPS_WindU_IsbL-0750_RLatLon0.09_PT012H.grib2 2026-05-08 14:43 542K
20260508T12Z_MSC_RDPS_WindU_IsbL-0800_RLatLon0.09_PT012H.grib2 2026-05-08 14:43 582K
20260508T12Z_MSC_RDPS_WindU_IsbL-0850_RLatLon0.09_PT012H.grib2 2026-05-08 14:43 626K
20260508T12Z_MSC_RDPS_WindU_IsbL-0875_RLatLon0.09_PT012H.grib2 2026-05-08 14:43 639K
20260508T12Z_MSC_RDPS_WindU_IsbL-0900_RLatLon0.09_PT012H.grib2 2026-05-08 14:43 651K
20260508T12Z_MSC_RDPS_WindU_IsbL-0925_RLatLon0.09_PT012H.grib2 2026-05-08 14:43 659K
20260508T12Z_MSC_RDPS_WindU_IsbL-0950_RLatLon0.09_PT012H.grib2 2026-05-08 14:43 658K
20260508T12Z_MSC_RDPS_WindU_IsbL-0970_RLatLon0.09_PT012H.grib2 2026-05-08 14:43 653K
20260508T12Z_MSC_RDPS_WindU_IsbL-0985_RLatLon0.09_PT012H.grib2 2026-05-08 14:43 649K
20260508T12Z_MSC_RDPS_WindU_IsbL-1000_RLatLon0.09_PT012H.grib2 2026-05-08 14:43 783K
20260508T12Z_MSC_RDPS_WindU_IsbL-1015_RLatLon0.09_PT012H.grib2 2026-05-08 14:43 777K
20260508T12Z_MSC_RDPS_WindV_AGL-10m_RLatLon0.09_PT012H.grib2 2026-05-08 14:43 430K
20260508T12Z_MSC_RDPS_WindV_AGL-120m_RLatLon0.09_PT012H.grib2 2026-05-08 14:43 528K
20260508T12Z_MSC_RDPS_WindV_AGL-40m_RLatLon0.09_PT012H.grib2 2026-05-08 14:43 533K
20260508T12Z_MSC_RDPS_WindV_AGL-80m_RLatLon0.09_PT012H.grib2 2026-05-08 14:43 530K
20260508T12Z_MSC_RDPS_WindV_IsbL-0001_RLatLon0.09_PT012H.grib2 2026-05-08 14:43 241K
20260508T12Z_MSC_RDPS_WindV_IsbL-0005_RLatLon0.09_PT012H.grib2 2026-05-08 14:43 283K
20260508T12Z_MSC_RDPS_WindV_IsbL-0010_RLatLon0.09_PT012H.grib2 2026-05-08 14:43 292K
20260508T12Z_MSC_RDPS_WindV_IsbL-0020_RLatLon0.09_PT012H.grib2 2026-05-08 14:43 308K
20260508T12Z_MSC_RDPS_WindV_IsbL-0030_RLatLon0.09_PT012H.grib2 2026-05-08 14:43 308K
20260508T12Z_MSC_RDPS_WindV_IsbL-0050_RLatLon0.09_PT012H.grib2 2026-05-08 14:43 337K
20260508T12Z_MSC_RDPS_WindV_IsbL-0100_RLatLon0.09_PT012H.grib2 2026-05-08 14:43 422K
20260508T12Z_MSC_RDPS_WindV_IsbL-0150_RLatLon0.09_PT012H.grib2 2026-05-08 14:43 393K
20260508T12Z_MSC_RDPS_WindV_IsbL-0175_RLatLon0.09_PT012H.grib2 2026-05-08 14:43 416K
20260508T12Z_MSC_RDPS_WindV_IsbL-0200_RLatLon0.09_PT012H.grib2 2026-05-08 14:43 335K
20260508T12Z_MSC_RDPS_WindV_IsbL-0225_RLatLon0.09_PT012H.grib2 2026-05-08 14:43 339K
20260508T12Z_MSC_RDPS_WindV_IsbL-0250_RLatLon0.09_PT012H.grib2 2026-05-08 14:43 365K
20260508T12Z_MSC_RDPS_WindV_IsbL-0275_RLatLon0.09_PT012H.grib2 2026-05-08 14:43 376K
20260508T12Z_MSC_RDPS_WindV_IsbL-0300_RLatLon0.09_PT012H.grib2 2026-05-08 14:43 346K
20260508T12Z_MSC_RDPS_WindV_IsbL-0350_RLatLon0.09_PT012H.grib2 2026-05-08 14:43 355K
20260508T12Z_MSC_RDPS_WindV_IsbL-0400_RLatLon0.09_PT012H.grib2 2026-05-08 14:43 357K
20260508T12Z_MSC_RDPS_WindV_IsbL-0450_RLatLon0.09_PT012H.grib2 2026-05-08 14:43 358K
20260508T12Z_MSC_RDPS_WindV_IsbL-0500_RLatLon0.09_PT012H.grib2 2026-05-08 14:43 465K
20260508T12Z_MSC_RDPS_WindV_IsbL-0550_RLatLon0.09_PT012H.grib2 2026-05-08 14:43 470K
20260508T12Z_MSC_RDPS_WindV_IsbL-0600_RLatLon0.09_PT012H.grib2 2026-05-08 14:43 482K
20260508T12Z_MSC_RDPS_WindV_IsbL-0650_RLatLon0.09_PT012H.grib2 2026-05-08 14:43 500K
20260508T12Z_MSC_RDPS_WindV_IsbL-0700_RLatLon0.09_PT012H.grib2 2026-05-08 14:43 523K
20260508T12Z_MSC_RDPS_WindV_IsbL-0750_RLatLon0.09_PT012H.grib2 2026-05-08 14:43 535K
20260508T12Z_MSC_RDPS_WindV_IsbL-0800_RLatLon0.09_PT012H.grib2 2026-05-08 14:43 575K
20260508T12Z_MSC_RDPS_WindV_IsbL-0850_RLatLon0.09_PT012H.grib2 2026-05-08 14:43 619K
20260508T12Z_MSC_RDPS_WindV_IsbL-0875_RLatLon0.09_PT012H.grib2 2026-05-08 14:43 635K
20260508T12Z_MSC_RDPS_WindV_IsbL-0900_RLatLon0.09_PT012H.grib2 2026-05-08 14:43 649K
20260508T12Z_MSC_RDPS_WindV_IsbL-0925_RLatLon0.09_PT012H.grib2 2026-05-08 14:43 658K
20260508T12Z_MSC_RDPS_WindV_IsbL-0950_RLatLon0.09_PT012H.grib2 2026-05-08 14:43 657K
20260508T12Z_MSC_RDPS_WindV_IsbL-0970_RLatLon0.09_PT012H.grib2 2026-05-08 14:43 792K
20260508T12Z_MSC_RDPS_WindV_IsbL-0985_RLatLon0.09_PT012H.grib2 2026-05-08 14:43 786K
20260508T12Z_MSC_RDPS_WindV_IsbL-1000_RLatLon0.09_PT012H.grib2 2026-05-08 14:43 781K
20260508T12Z_MSC_RDPS_WindV_IsbL-1015_RLatLon0.09_PT012H.grib2 2026-05-08 14:43 821K